GFSSGP_250_rhum_087.txt.gz
RH
19 18 17 16 21 32 24 17 14 12 12 12 12 12 13 14 12 13 9 7 7 8 9 10 10 14 10 12 13 15 22 22 27 73 98 57 49 54 51 58 56 52 39 33 40 84 96 99 93
21 18 19 22 20 18 16 16 13 11 12 12 13 14 17 17 11 11 10 9 8 8 8 10 11 16 14 10 11 14 19 29 29 27 33 43 55 72 76 84 90 83 94 93 78 69 65 58 59
19 18 19 21 18 17 16 14 13 12 12 15 18 16 18 14 13 11 9 9 9 8 7 8 16 51 39 17 12 11 15 21 25 25 57 60 62 94 100 100 100 100 83 75 42 34 36 40 41
17 21 20 20 19 16 15 15 14 14 15 15 18 18 15 12 11 9 8 8 8 8 8 47 88 80 99 80 36 14 14 22 22 25 42 50 100 100 100 100 100 64 58 49 36 29 33 31 43
24 21 22 16 15 15 14 15 17 17 18 19 19 18 12 12 10 9 9 10 10 10 23 77 71 100 98 100 100 22 14 17 17 19 40 100 100 100 100 89 61 47 54 46 20 26 22 30 36
27 21 19 17 17 16 16 16 17 18 20 20 20 16 12 11 11 12 16 34 25 32 38 77 68 99 99 96 97 32 18 17 18 42 100 100 100 100 98 73 78 74 54 46 33 21 18 31 28
24 23 21 21 23 22 20 20 17 20 22 21 18 15 11 11 13 33 60 75 60 58 60 100 96 100 100 93 100 85 33 44 82 100 96 100 100 100 98 84 73 68 59 47 41 30 18 31 36
29 26 23 23 29 26 22 21 21 22 22 24 17 12 11 17 29 76 100 100 87 72 100 100 100 100 100 100 100 100 100 100 100 100 100 99 81 65 83 72 67 60 58 50 50 30 18 21 23
40 27 26 34 33 35 24 26 28 22 24 22 13 14 15 49 71 100 100 100 100 99 100 100 100 100 100 100 100 100 100 100 100 100 99 80 66 62 91 90 81 76 63 48 40 30 20 18 17
38 34 35 35 34 31 39 33 31 25 26 20 14 18 33 84 100 100 100 100 100 100 100 100 100 100 100 100 100 100 100 100 100 100 100 100 81 73 100 99 100 76 62 64 53 42 31 20 24
44 39 43 39 40 42 47 40 42 26 27 25 20 25 68 100 100 100 100 100 100 100 100 100 100 100 100 100 100 100 100 100 100 100 100 90 99 96 79 95 93 81 83 55 53 47 43 32 33
46 42 44 46 40 53 40 40 44 28 25 30 23 36 94 100 100 100 100 100 100 100 100 100 100 100 100 100 83 92 100 91 100 100 98 100 84 84 99 99 100 99 91 67 51 63 45 49 48
55 47 50 47 45 62 43 44 51 29 34 43 21 37 95 100 100 100 100 100 100 100 97 97 100 100 79 68 98 100 100 100 97 100 100 100 75 86 100 100 100 98 100 65 99 67 74 58 47
52 52 50 44 46 60 59 43 46 34 49 34 21 32 65 100 100 100 100 100 100 95 88 100 100 98 98 83 100 99 82 80 72 100 100 100 86 76 96 86 96 89 100 100 74 66 89 87 56
58 46 51 50 49 50 56 49 46 37 48 36 22 20 52 90 100 100 100 100 100 100 86 90 100 100 100 94 100 100 99 98 63 95 100 100 100 100 99 100 100 100 100 100 98 99 86 71 61
61 56 55 61 50 39 78 45 45 35 36 40 26 23 24 56 96 100 100 100 100 100 94 98 100 100 100 99 73 100 88 100 95 100 100 100 100 100 100 100 100 100 100 100 94 94 76 74 74
75 62 65 75 60 43 88 45 50 33 32 40 34 41 24 27 59 84 98 100 100 100 100 80 95 100 100 100 98 96 100 100 93 90 100 100 100 100 100 100 100 100 91 85 74 67 74 90 80
73 98 81 83 78 58 83 57 53 34 34 31 29 56 25 23 33 49 80 90 97 100 100 100 97 100 100 100 98 81 83 100 92 100 100 100 100 100 100 100 94 97 100 74 89 100 100 98 99
93 100 92 86 87 76 88 66 67 44 39 33 31 55 31 23 27 43 52 73 89 100 100 100 100 100 100 100 100 100 100 82 100 88 93 83 95 100 95 100 100 100 96 78 97 100 100 100 100
99 100 100 76 73 68 83 48 97 68 51 35 35 70 32 23 24 32 33 51 69 80 97 100 100 100 100 100 100 100 100 100 100 96 99 100 92 76 75 93 74 76 100 100 100 100 100 100 95
92 100 100 68 59 73 68 66 100 77 59 51 35 72 39 26 27 34 31 34 50 67 76 87 89 95 100 100 100 100 100 96 93 100 100 86 93 100 100 99 100 100 95 98 100 100 100 98 97
100 100 79 63 64 79 72 80 97 87 69 57 38 81 39 28 25 35 29 28 38 69 69 69 90 83 84 94 100 100 100 100 80 100 96 100 100 100 100 100 100 100 100 100 100 100 100 94 99
100 100 80 73 93 80 73 90 99 99 78 58 39 93 64 46 26 38 37 49 59 53 46 52 77 76 74 75 87 100 95 99 94 100 100 100 100 100 100 95 98 100 100 100 100 100 100 100 100
100 100 98 95 85 61 76 97 100 100 90 69 58 68 81 76 38 28 41 52 66 65 63 61 53 51 60 61 62 73 79 79 90 91 95 96 100 100 100 100 100 100 100 100 100 100 100 100 100
100 100 100 68 62 69 67 87 100 100 95 94 74 57 88 81 50 25 27 34 46 56 58 62 60 53 53 59 58 56 63 75 77 87 91 91 98 100 100 100 100 100 100 100 100 100 100 100 98
100 100 96 68 65 56 65 96 100 100 92 100 90 65 65 95 71 34 26 27 30 30 30 36 50 55 59 63 77 66 77 87 93 97 90 100 100 100 100 100 100 100 100 100 100 100 90 95 76
100 100 100 88 70 63 72 100 100 100 83 99 99 75 51 97 88 55 31 29 32 34 32 31 29 31 50 45 56 76 94 100 100 100 100 100 100 100 100 100 100 100 99 94 80 72 83 78 94
100 100 99 79 81 89 100 100 100 100 100 100 100 82 60 86 92 85 42 34 33 32 29 28 26 26 29 69 92 90 93 95 92 88 89 87 86 84 80 84 87 81 80 74 71 86 88 92 71
72 70 78 68 70 73 85 100 100 100 95 88 100 86 63 57 100 97 61 38 41 39 35 33 25 26 29 43 72 95 95 81 82 77 77 81 74 79 88 93 84 86 82 74 60 56 76 100 54
100 100 100 62 56 50 73 100 100 100 89 100 100 89 74 62 59 100 82 46 48 53 49 39 32 26 28 35 47 44 55 62 72 80 75 76 78 81 63 60 60 59 52 49 86 100 100 79 72

GFSSGP_250_rhum_090.txt.gz
RH
30 24 21 19 16 17 16 15 14 12 13 13 13 12 11 11 12 10 9 9 8 8 8 8 8 8 11 32 16 15 16 19 20 23 27 54 67 66 57 61 72 60 51 45 43 46 40 37 51
30 24 20 17 16 15 17 17 14 15 14 14 13 13 13 12 12 11 10 10 9 8 7 7 7 8 24 51 63 49 55 22 16 19 25 28 29 58 78 100 100 77 51 54 56 54 50 57 55
30 21 18 16 16 20 17 16 15 14 14 13 13 13 14 13 12 11 11 8 8 7 7 9 12 8 14 64 90 70 99 32 12 15 21 30 31 41 87 100 88 64 73 82 95 90 98 95 69
28 23 20 20 19 19 17 16 16 16 16 16 15 13 13 12 11 10 9 8 8 8 8 8 47 96 100 95 100 97 100 58 26 12 16 28 34 35 39 52 82 100 100 100 79 79 72 30 31
30 22 21 22 21 18 18 19 19 17 17 15 14 14 13 12 11 10 8 7 9 8 9 18 96 92 99 96 99 96 100 62 17 12 16 27 37 27 53 81 100 100 94 86 46 31 32 28 27
27 27 25 23 24 21 20 23 20 20 18 16 16 16 15 14 10 8 8 9 14 10 28 67 100 100 99 92 100 100 100 88 19 14 17 32 27 48 65 100 100 100 77 57 35 32 31 19 19
30 34 30 30 26 22 24 28 23 26 19 19 18 18 16 12 10 10 14 21 24 23 86 100 96 80 70 100 92 100 98 100 27 19 22 26 34 80 100 100 100 98 73 52 54 38 32 25 31
30 30 39 36 30 27 35 30 29 30 25 24 19 18 15 12 14 24 40 43 35 40 96 100 100 100 99 100 94 100 100 88 88 18 18 25 74 100 100 100 100 92 70 62 47 39 29 19 19
31 34 42 35 35 39 37 27 36 34 28 29 19 19 15 18 32 82 86 86 64 66 79 100 100 96 100 79 100 100 95 80 100 54 36 81 100 100 100 100 98 76 51 54 47 36 30 22 20
39 29 37 36 40 42 38 34 44 31 36 35 22 21 17 31 75 99 99 100 88 80 100 100 100 94 100 100 100 100 100 87 100 100 100 100 100 100 100 81 83 68 66 55 42 43 43 44 26
47 32 38 30 39 42 40 36 46 37 32 39 25 22 19 67 100 88 100 100 88 99 100 100 100 100 100 100 98 98 99 99 100 100 100 100 100 91 67 91 98 85 70 54 52 55 42 46 46
53 46 42 39 40 45 43 32 34 44 30 43 29 28 20 76 100 100 94 100 98 100 100 100 100 100 87 96 100 95 95 99 100 100 100 100 86 75 58 71 78 96 70 62 48 45 54 64 73
56 61 52 52 44 49 49 37 30 35 30 39 29 37 19 84 100 100 100 100 84 96 100 100 100 100 100 100 96 72 100 100 90 100 100 100 72 82 71 83 71 97 76 81 95 50 96 78 76
74 66 63 50 48 46 50 45 39 38 33 34 29 40 21 51 100 100 100 100 100 98 100 100 100 100 100 100 100 100 100 100 96 90 100 100 100 88 62 57 61 99 100 69 78 98 96 100 90
82 75 66 57 63 51 53 51 47 46 32 33 32 32 28 21 70 100 100 100 100 100 100 100 100 100 100 100 100 100 91 94 100 99 100 100 100 100 73 87 72 99 45 76 96 100 78 56 52
100 89 74 57 77 66 62 56 54 49 40 36 39 36 28 21 26 77 100 99 100 100 100 91 100 100 100 100 100 100 100 100 100 100 100 100 100 100 100 99 78 100 100 100 100 99 84 84 60
100 91 74 92 86 75 76 72 61 44 50 48 49 37 29 22 21 38 88 96 100 100 94 100 98 98 100 96 76 89 92 81 70 91 94 97 100 100 100 94 99 100 100 100 100 100 79 65 96
100 93 95 100 94 87 99 92 68 41 48 74 57 47 41 25 20 23 52 90 91 97 100 100 100 97 100 97 98 94 95 100 71 69 66 100 100 100 100 99 100 100 100 100 100 94 97 66 70
100 100 100 100 77 96 88 100 72 42 47 77 66 49 39 24 22 21 30 54 79 78 100 92 91 86 100 80 100 77 78 72 73 80 81 86 100 100 100 100 100 100 100 100 90 63 100 82 51
100 100 100 100 88 94 100 100 69 50 48 85 65 51 38 30 20 21 32 32 54 63 81 100 100 100 100 100 100 100 100 96 75 73 80 85 100 100 100 100 89 94 93 92 100 95 69 54 78
100 99 100 100 91 100 100 100 72 57 62 67 82 59 50 36 31 25 29 32 32 59 71 78 99 100 100 100 100 100 93 100 100 95 82 88 91 83 92 94 64 62 67 63 55 63 57 96 100
100 100 94 100 76 91 100 100 75 64 64 66 86 62 60 41 33 32 25 31 30 48 58 62 70 96 100 100 100 100 100 100 100 100 100 100 74 70 71 70 78 81 86 94 87 100 100 100 100
100 99 86 100 100 100 100 100 82 71 68 88 92 66 73 54 38 45 25 35 31 61 62 58 76 74 95 94 100 100 100 100 100 100 100 100 100 100 89 98 100 100 100 100 100 100 100 100 100
100 100 98 100 89 100 100 100 91 71 79 86 93 68 86 68 47 64 30 26 38 49 58 54 54 59 68 84 82 88 100 100 100 100 100 100 100 100 100 100 100 100 100 100 100 100 100 100 100
100 100 100 100 94 100 100 83 84 74 91 99 92 60 91 76 56 63 56 25 26 32 37 38 46 53 57 62 80 75 79 92 100 100 100 100 100 100 100 100 100 100 100 100 100 100 100 100 100
93 100 96 96 99 100 96 80 99 77 100 100 85 54 77 90 64 60 64 42 27 23 24 26 29 37 42 46 45 58 61 58 60 79 100 100 100 100 100 100 100 100 100 100 100 100 100 100 100
92 100 100 88 99 100 100 96 100 81 96 100 100 78 98 95 74 82 73 53 36 28 24 25 26 25 26 33 50 54 57 80 90 84 82 88 100 100 100 100 100 100 100 100 100 100 100 100 96
98 100 100 71 96 92 100 100 100 100 98 100 100 96 95 100 74 66 75 72 44 35 32 30 26 22 22 26 34 72 74 70 91 98 100 100 100 100 100 100 100 100 100 100 97 95 82 75 71
90 95 92 92 100 100 100 100 100 100 97 97 100 89 72 100 82 62 90 84 54 43 47 45 38 29 24 21 29 56 100 100 100 100 100 98 100 100 100 98 87 78 67 67 65 60 59 65 94
100 96 100 100 100 100 77 100 100 100 100 96 83 64 77 100 88 67 75 100 96 68 54 52 60 39 33 26 27 34 45 73 91 100 100 98 94 95 76 61 57 56 50 51 50 55 83 100 99

GFSSGP_250_rhum_093.txt.gz
RH
36 35 34 34 23 22 14 14 13 12 12 13 14 13 11 11 10 10 9 8 7 7 7 8 11 10 7 7 22 26 16 14 14 17 18 22 21 25 28 34 53 55 69 53 42 48 54 51 38
56 46 51 40 28 21 18 17 14 15 14 14 14 13 13 12 11 11 10 9 9 8 8 7 7 11 9 19 20 55 86 61 29 42 54 25 22 25 28 32 64 94 93 72 63 70 84 69 55
65 52 48 39 28 20 18 17 16 16 16 16 15 15 14 13 12 12 10 10 9 8 7 8 8 10 12 26 32 53 44 97 100 100 81 30 18 21 26 33 48 86 100 100 93 70 83 83 70
67 58 54 35 25 23 20 19 19 18 18 18 17 15 14 13 12 11 10 9 8 7 8 8 8 8 15 38 48 81 100 100 99 100 60 43 23 16 20 28 40 100 100 100 100 79 74 96 90
80 62 48 38 27 24 22 22 22 20 22 21 21 17 15 12 11 10 9 8 8 7 7 10 38 32 56 79 93 100 100 100 100 100 98 31 24 16 20 27 37 82 100 76 82 100 100 87 80
94 79 51 41 28 25 26 24 24 26 26 24 24 20 14 12 11 9 9 8 8 7 8 92 75 100 93 71 80 100 100 99 89 100 100 52 17 16 23 31 30 36 55 95 100 100 93 82 33
89 83 48 39 29 29 31 26 29 29 27 25 22 20 14 12 11 10 10 10 11 13 17 100 93 70 65 60 61 97 100 99 83 100 100 55 19 14 20 36 35 62 100 100 100 80 36 32 32
92 84 52 38 32 32 29 25 31 29 26 25 25 21 18 14 14 15 19 22 28 36 49 100 100 81 62 76 88 100 100 100 100 100 100 36 18 15 26 35 72 100 100 98 65 42 36 36 23
99 94 66 40 34 32 28 27 28 26 30 25 28 22 19 18 16 22 40 51 56 50 72 100 100 92 70 70 100 100 100 100 100 100 90 32 18 21 25 61 100 100 100 100 78 56 40 29 23
98 100 84 46 36 36 27 29 29 24 28 24 28 24 21 21 17 61 73 58 83 70 72 100 100 95 72 100 100 100 100 100 100 99 64 49 19 28 88 100 100 100 100 77 71 56 34 31 24
86 99 92 63 43 40 33 28 32 35 40 32 28 27 28 23 20 98 100 82 84 91 94 100 98 95 98 100 100 100 100 90 100 100 72 76 23 88 100 100 100 100 100 80 57 46 36 45 36
100 100 100 93 54 51 47 31 38 41 46 41 28 28 28 29 21 66 100 100 100 92 100 100 100 81 94 100 100 100 100 100 100 100 72 96 100 92 82 100 100 100 96 73 62 42 43 34 41
100 100 100 100 64 60 63 39 44 43 53 43 33 31 38 32 27 53 70 100 98 81 100 100 100 100 100 100 100 100 100 100 100 100 84 100 100 93 96 100 100 84 91 79 65 47 61 50 65
100 100 95 100 94 65 69 53 50 48 56 51 34 34 38 34 31 63 73 81 100 96 100 100 100 100 100 100 100 100 100 100 100 100 89 100 100 95 88 83 84 60 58 88 79 47 69 56 83
100 100 100 100 94 68 70 66 53 63 61 62 36 34 37 42 37 23 91 58 100 95 100 91 100 100 100 100 86 93 100 100 100 100 96 79 96 100 74 72 72 52 55 100 88 74 40 91 82
100 100 100 100 100 84 80 66 42 70 65 70 40 42 44 40 37 26 27 80 53 100 94 100 100 87 100 100 79 69 78 100 100 100 87 69 88 89 82 79 64 59 74 60 77 99 99 92 100
100 100 100 100 100 100 94 71 38 91 86 81 45 47 40 36 33 29 20 30 90 90 92 100 98 100 94 100 98 90 79 100 100 84 91 73 78 83 77 82 80 76 75 94 100 100 100 100 100
100 100 100 100 100 100 100 100 96 66 76 91 48 52 38 36 42 27 21 22 73 83 90 100 87 99 94 100 100 100 99 100 96 84 92 97 100 94 99 99 96 100 98 99 95 100 100 100 85
98 92 100 100 100 100 100 100 100 55 90 100 48 49 48 42 41 41 26 23 36 72 90 86 85 100 100 100 80 100 100 100 100 100 100 100 100 100 100 77 100 100 99 58 100 100 100 100 88
57 98 100 100 94 96 100 100 100 96 100 81 48 46 53 47 40 37 27 27 24 64 62 98 96 92 98 100 100 95 100 100 97 91 84 78 82 74 100 100 100 100 100 100 100 100 100 94 100
63 100 100 100 100 77 100 100 100 100 100 73 55 48 65 55 39 50 33 23 28 32 70 69 98 100 81 94 98 100 100 94 100 98 100 99 83 98 100 100 100 100 100 100 100 97 81 91 65
60 86 100 93 100 67 92 100 100 98 96 78 63 53 74 55 43 44 37 24 28 26 40 70 73 100 85 98 100 100 98 100 100 100 99 84 80 95 100 91 100 100 100 80 80 70 63 58 58
66 73 94 99 100 64 89 100 100 100 78 92 72 57 87 58 47 44 47 29 24 32 26 48 61 73 100 80 100 100 100 100 84 93 100 100 95 87 99 99 100 94 81 83 76 77 89 86 100
74 78 96 100 100 63 79 100 100 100 79 100 84 74 81 66 41 71 58 43 25 35 44 35 62 62 83 100 100 100 100 100 97 100 100 100 100 100 100 100 89 84 100 98 100 100 100 100 100
86 92 98 98 89 83 92 100 100 100 75 89 88 84 86 80 40 75 56 50 34 25 27 42 44 65 69 62 72 97 100 100 100 100 100 100 100 100 100 100 100 100 100 100 100 100 100 100 100
79 95 100 100 100 88 95 100 100 100 75 71 95 98 100 77 35 71 65 42 51 30 24 24 29 41 57 65 75 80 85 92 99 100 100 100 100 100 100 100 99 100 100 100 100 100 100 100 100
65 88 100 100 100 100 96 100 100 100 66 86 100 100 100 89 60 66 69 65 38 46 30 27 25 24 22 24 44 58 66 74 90 98 100 100 100 100 100 100 100 100 100 100 100 100 100 99 100
73 92 99 100 86 82 94 100 100 100 98 98 100 92 100 100 97 46 81 68 60 61 39 35 29 28 27 21 23 29 46 58 63 77 96 100 100 100 100 100 100 100 100 100 95 100 100 100 100
89 95 98 100 80 86 99 100 97 100 100 96 94 89 97 100 100 44 91 67 60 93 51 42 40 30 32 24 20 24 29 38 39 44 60 78 95 100 100 100 96 91 94 100 100 100 100 83 72
100 100 100 100 76 100 100 100 76 100 100 100 98 80 73 100 100 69 66 78 66 80 95 59 54 51 41 33 24 22 25 28 38 52 66 86 94 99 97 100 99 88 89 81 72 68 65 52 45

GFSSGP_250_rhum_096.txt.gz
RH
18 14 17 26 24 27 15 10 18 13 14 14 13 12 11 10 10 10 10 9 8 8 9 9 8 8 8 7 7 7 11 12 18 17 12 13 14 14 15 15 18 21 21 21 22 26 28 31 29
14 14 18 26 30 31 22 23 23 18 17 16 15 15 15 14 13 13 14 12 10 10 9 10 8 8 8 7 7 7 9 24 25 35 23 40 40 48 32 18 18 26 27 23 26 33 41 52 56
15 18 23 39 51 44 35 31 25 21 18 18 17 17 18 16 15 14 12 12 11 9 8 8 7 7 8 9 12 14 46 74 67 60 69 86 93 68 39 38 25 20 25 27 29 39 86 83 80
28 46 47 48 59 52 45 39 27 21 20 21 20 20 18 18 16 13 12 11 9 8 7 7 8 8 11 15 12 58 89 89 84 82 85 100 100 100 75 30 23 19 23 30 55 87 100 94 75
66 77 63 69 81 67 49 37 28 23 24 21 20 20 21 18 16 13 12 10 8 8 7 7 8 8 8 14 65 100 100 100 100 100 97 97 100 96 100 47 21 17 67 100 84 100 97 75 95
82 62 59 69 78 67 46 42 31 26 26 23 20 23 21 16 13 14 11 9 8 8 7 9 8 7 29 36 100 100 100 91 96 100 92 100 98 98 99 35 18 16 43 80 100 100 100 99 100
100 100 97 86 84 78 46 40 35 26 25 25 22 21 20 19 16 14 12 11 10 14 12 16 13 14 43 100 99 83 71 64 100 100 100 100 96 100 88 32 15 16 22 100 100 100 100 100 100
100 100 100 90 82 85 57 40 34 26 25 24 22 25 24 22 16 15 12 21 32 42 37 33 60 21 92 100 74 44 94 91 100 100 100 100 100 100 63 23 14 15 30 100 100 100 100 100 54
96 70 92 92 80 92 69 44 38 28 27 25 24 28 31 23 20 15 23 46 55 61 45 97 63 100 100 100 62 61 67 100 100 100 100 100 100 96 59 19 17 18 38 95 94 100 100 60 28
61 100 100 100 96 100 88 57 43 32 31 31 28 28 32 27 20 16 41 77 74 100 94 100 100 93 96 87 100 100 99 100 100 100 100 100 96 67 61 30 22 30 57 100 100 100 62 54 26
26 51 96 100 64 90 94 85 55 41 39 32 35 36 36 26 24 17 44 96 98 79 86 99 100 100 88 98 100 100 100 100 99 100 100 100 98 95 54 28 36 54 99 100 100 100 64 60 34
28 30 59 100 93 100 98 100 76 55 50 41 39 43 46 30 26 20 22 100 66 100 90 94 100 100 95 92 100 100 100 81 100 100 100 100 100 76 44 33 36 100 94 92 100 79 62 48 34
32 32 35 64 96 99 100 100 89 65 59 49 49 52 49 34 26 21 21 62 100 100 86 100 100 100 100 100 100 95 100 100 99 100 91 100 99 84 42 96 99 80 79 100 100 78 58 44 37
36 34 46 95 100 100 100 100 100 76 69 50 59 62 54 33 23 22 20 32 91 100 97 83 81 91 100 100 100 100 100 100 98 100 100 100 100 92 77 86 72 70 100 98 85 75 54 43 40
39 33 39 66 100 61 77 100 100 66 74 59 54 64 58 42 26 25 21 21 47 100 100 68 100 89 100 100 100 97 100 100 100 100 100 100 100 88 82 81 64 91 87 80 93 83 68 59 79
44 32 36 52 56 94 100 91 100 59 96 64 53 73 69 52 29 27 21 18 24 66 92 100 98 76 92 100 100 100 100 100 100 100 100 100 99 90 69 93 92 91 86 52 69 98 96 87 63
47 38 44 43 44 90 100 100 100 90 99 68 54 57 63 64 31 25 26 22 18 27 99 76 81 96 90 100 100 100 100 100 100 100 100 81 100 95 78 98 88 79 72 64 57 48 60 88 94
50 43 41 41 59 76 97 100 100 98 90 99 94 53 95 83 37 22 25 28 21 24 55 100 64 94 81 100 100 100 100 100 100 100 100 100 100 78 88 81 83 84 91 94 63 74 82 100 100
45 36 38 48 50 99 77 100 100 93 91 98 100 45 100 63 42 24 26 25 24 19 60 96 95 75 75 91 100 100 100 100 100 100 100 99 100 100 76 74 76 78 100 100 100 100 86 79 71
36 34 41 54 50 98 80 96 100 100 100 100 100 99 100 46 44 28 22 23 24 21 22 96 71 90 85 66 88 90 95 95 99 100 100 100 100 95 89 67 75 100 100 100 100 100 100 92 82
30 33 55 66 63 79 77 94 100 100 100 99 100 100 94 54 53 37 25 25 24 21 23 65 93 71 88 99 74 84 100 97 98 96 100 100 100 100 100 100 100 99 100 99 75 97 73 91 100
26 61 71 83 86 74 90 84 100 100 100 88 100 100 96 73 60 43 31 24 26 23 26 28 68 100 77 86 80 95 68 95 100 100 100 100 99 100 93 88 88 95 100 99 100 100 100 93 100
27 77 76 90 96 70 82 60 76 100 100 93 100 100 84 64 66 53 40 25 22 27 27 27 47 76 100 100 96 100 95 94 100 100 100 96 100 100 93 97 82 94 91 100 100 100 99 86 86
39 78 79 93 94 71 95 67 68 100 95 90 88 100 90 77 73 66 48 26 27 32 22 24 29 58 73 94 100 100 100 100 100 100 100 100 100 100 98 100 100 96 84 87 65 76 69 80 94
38 100 88 89 75 77 92 64 63 100 95 92 89 100 100 86 66 73 55 26 34 34 30 23 22 28 65 89 100 100 100 100 100 93 98 100 100 97 100 87 100 97 99 96 91 94 92 100 100
38 90 98 96 84 75 73 62 64 100 100 95 82 100 100 54 68 66 63 26 39 48 41 27 23 29 36 52 73 95 100 100 100 100 93 100 100 100 86 100 99 100 100 100 100 100 100 100 100
52 88 100 87 87 82 80 86 75 100 100 100 100 100 100 49 74 100 100 38 36 54 38 42 26 26 24 42 67 66 78 100 100 100 100 100 100 100 100 100 100 100 100 100 100 100 100 100 100
80 100 92 74 86 80 97 91 95 100 100 100 100 100 100 69 100 100 100 91 32 43 57 43 37 25 27 28 23 26 53 77 86 98 100 100 100 100 100 100 100 100 100 100 100 100 100 100 100
88 94 97 84 87 83 95 100 71 97 100 100 100 99 92 100 100 100 100 100 97 30 72 42 60 45 30 28 28 28 18 19 48 93 99 100 100 100 100 100 100 100 100 100 100 100 100 100 100
100 100 88 80 80 81 89 100 100 100 100 100 100 93 56 100 100 94 100 100 100 40 80 59 53 73 57 48 35 29 39 22 24 36 54 94 99 100 100 100 100 100 100 100 100 100 100 100 100

GFSSGP_250_rhum_099.txt.gz
RH
9 9 9 10 10 12 10 9 17 9 15 16 13 13 13 13 12 12 11 10 10 10 9 10 10 9 8 8 8 8 8 8 8 8 10 12 12 11 11 16 19 21 22 23 27 26 27 27 28
10 10 10 11 11 11 11 10 36 23 24 22 21 18 16 14 15 15 14 13 11 10 9 8 8 8 8 8 8 8 8 8 8 9 13 19 22 22 22 38 48 36 30 19 13 14 22 28 29
13 11 10 11 12 12 15 14 41 23 28 29 22 20 19 18 18 17 14 14 12 12 10 8 7 8 9 6 7 8 9 10 9 11 21 33 49 86 83 96 90 68 37 29 28 22 22 23 27
16 12 12 13 15 28 51 37 40 46 38 31 26 24 22 18 18 16 14 13 11 10 9 8 7 6 6 6 8 8 10 11 30 79 58 70 94 100 98 100 96 79 39 25 28 26 30 41 43
18 15 14 16 34 78 52 50 52 53 45 41 28 24 22 19 19 16 15 14 11 10 9 9 7 8 7 7 8 10 70 57 100 90 100 100 100 100 81 97 99 63 39 23 28 39 71 98 97
24 19 17 39 39 44 64 63 64 53 47 42 28 23 21 20 21 17 15 15 11 11 10 13 11 10 8 8 9 12 87 100 98 100 100 100 100 100 100 95 91 64 33 22 47 100 93 100 95
28 26 26 70 90 100 92 92 86 61 52 42 29 26 24 24 22 17 18 17 12 13 20 27 42 21 12 13 13 18 100 100 88 99 100 100 100 100 100 84 73 47 28 19 69 84 54 79 99
26 32 25 33 87 95 98 76 79 79 60 42 31 32 32 28 26 19 19 17 14 30 41 43 66 55 26 19 72 98 100 100 99 100 87 100 86 100 100 90 51 39 19 15 48 70 70 100 100
26 30 32 27 45 74 56 91 88 91 68 46 36 32 38 33 35 25 18 19 16 46 93 100 99 100 87 88 84 100 100 100 88 85 72 100 100 100 93 100 54 32 36 21 44 85 100 100 100
27 31 35 34 28 47 98 100 100 98 80 60 44 36 42 36 38 28 20 20 49 52 85 100 100 100 100 100 100 100 98 83 92 100 98 72 96 100 100 95 79 43 33 23 44 96 100 100 100
28 39 38 30 32 28 34 79 77 64 79 80 62 44 47 42 45 35 22 20 26 87 94 100 100 100 100 100 100 98 69 99 100 100 100 96 100 100 86 83 55 52 39 26 45 100 100 100 98
35 65 56 43 30 33 27 52 100 86 99 100 92 50 53 54 47 48 32 19 19 78 65 100 99 100 100 100 100 93 100 100 100 100 100 100 100 100 100 98 46 42 27 30 62 100 100 98 62
31 47 39 46 37 34 31 31 64 100 90 100 100 62 53 59 45 54 40 22 18 33 82 82 91 100 100 100 100 94 100 100 100 99 100 100 94 100 88 96 48 42 33 74 100 100 100 76 63
66 74 47 39 50 38 34 31 40 100 78 100 100 86 50 59 46 60 44 24 18 19 88 94 78 99 100 100 100 99 100 100 100 100 100 100 100 100 100 69 54 55 50 92 95 100 67 65 62
100 66 49 91 82 40 34 29 88 99 55 97 100 84 59 48 55 51 41 26 19 19 46 60 84 74 100 100 100 99 99 100 100 77 99 100 100 100 100 61 75 78 88 77 85 92 65 56 56
60 58 68 98 63 40 38 31 62 91 86 99 100 98 72 46 57 45 58 32 21 21 18 59 61 84 91 94 100 100 100 100 100 92 100 100 91 100 92 80 93 88 71 91 93 85 76 71 66
96 93 66 54 58 44 42 30 44 67 70 100 100 100 91 39 62 53 88 33 24 20 19 16 65 76 100 100 100 100 100 99 98 99 100 100 100 100 90 100 100 90 97 100 92 97 100 83 88
87 48 46 48 64 57 47 32 35 58 58 97 100 100 92 82 92 74 79 32 23 20 20 17 56 56 97 100 100 100 100 99 100 100 100 100 100 100 100 100 100 100 100 98 90 62 53 65 62
53 61 52 56 70 69 54 32 39 100 65 94 100 100 99 74 100 97 63 33 26 20 19 17 34 66 83 100 100 100 100 100 100 100 100 98 99 100 100 96 100 100 100 95 92 97 74 66 69
93 69 82 65 52 66 39 29 45 96 100 76 90 100 100 82 100 100 68 38 28 26 19 17 16 66 84 95 100 98 100 100 100 100 100 100 100 67 80 97 87 100 100 100 100 100 100 82 80
99 75 59 40 44 39 34 28 50 82 100 88 61 89 100 100 100 100 73 47 30 29 20 18 17 24 90 71 100 100 100 100 94 98 100 99 100 98 83 72 75 85 100 95 96 100 81 95 81
67 50 44 44 36 31 30 28 50 68 100 100 89 92 100 68 100 100 74 50 34 30 22 20 20 23 74 73 81 100 100 100 100 100 100 100 100 100 100 100 100 97 93 95 92 85 88 93 93
51 50 45 36 30 26 26 25 77 61 100 100 72 88 100 82 99 100 73 61 35 31 25 23 22 23 49 48 76 100 100 100 100 100 100 100 100 99 98 100 100 100 100 100 92 94 100 99 91
55 60 49 38 25 22 34 56 79 99 100 100 78 62 100 100 99 97 87 68 37 33 30 27 24 22 33 83 64 81 100 100 100 100 100 100 100 100 100 100 100 100 100 100 100 97 88 81 70
67 70 51 31 26 24 62 62 100 100 100 100 100 60 83 100 100 99 94 54 37 38 35 32 28 24 23 42 100 84 95 100 100 100 100 100 100 100 100 100 100 100 100 100 100 98 87 71 69
71 59 37 33 27 27 49 92 100 95 83 100 100 76 49 92 100 100 100 40 52 52 24 41 33 26 25 30 49 96 91 100 89 100 100 70 97 100 100 100 100 100 100 100 100 100 84 71 61
66 47 43 28 25 26 84 100 100 89 83 100 92 96 52 98 96 100 75 38 77 94 31 46 39 32 29 26 39 50 90 92 100 100 100 90 91 90 100 100 100 100 100 100 100 100 90 100 100
65 58 32 26 24 36 100 100 100 97 85 100 100 71 46 98 90 100 90 48 100 100 80 30 47 41 33 28 27 34 56 82 100 100 100 100 100 100 88 96 92 94 100 100 100 99 100 100 100
60 40 31 31 29 39 100 100 100 95 78 99 100 98 66 87 100 100 94 56 100 100 100 100 33 44 44 37 28 26 26 29 33 57 86 97 98 100 100 100 100 100 100 100 100 100 100 100 100
42 27 31 27 38 54 100 100 100 100 84 93 100 100 87 74 100 100 100 76 100 94 93 100 43 37 45 43 48 48 31 27 26 18 25 37 66 100 100 100 100 100 100 100 100 100 100 100 100